[TLELIST] Archives

 

[list_settings.list_name] Current TLEs

July 16th 2008 PDT

HST 1 20580U 90037B 08197.88018780 .00000281 00000-0 89139-5 0 1784 2 20580 028.4677 136.0785 0003374 325.5486 034.4889 15.00392674799290 ISS (ZARYA) 1 25544U 98067A 08198.15750978 .00007819 00000-0 55333-4 0 8670 2 25544 051.6410 227.3924 0009541 019.2831 024.9336 15.75093820553090 CXO 1 25867U 99040B 08196.79166667 +.00000052 +00000-0 +10000-3 0 02222 2 25867 063.8922 079.7284 6887927 278.5630 016.3026 00.37804688003741 ____________________________________________________________________ These 2-Line ...Continue Reading

[list_settings.list_name] Current TLEs

July 15th 2008 PDT

HST 1 20580U 90037B 08196.28374388 .00000271 00000-0 80663-5 0 1777 2 20580 028.4677 146.4904 0003445 308.9621 051.0661 15.00392213799059 ISS (ZARYA) 1 25544U 98067A 08196.52586507 .00006830 00000-0 48944-4 0 8575 2 25544 051.6410 235.7842 0009689 012.6589 133.4112 15.75063123552834 CXO 1 25867U 99040B 08196.79166667 +.00000052 +00000-0 +10000-3 0 02222 2 25867 063.8922 079.7284 6887927 278.5630 016.3026 00.37804688003741 ____________________________________________________________________ These 2-Line ...Continue Reading

[list_settings.list_name] Current TLEs

July 14th 2008 PDT

HST 1 20580U 90037B 08195.21944773 .00000248 00000-0 62732-5 0 1760 2 20580 028.4678 153.4311 0003485 296.8521 063.1711 15.00391850798895 ISS (ZARYA) 1 25544U 98067A 08195.51099362 .00005563 00000-0 40704-4 0 8502 2 25544 051.6414 241.0035 0009623 008.7730 138.8748 15.75042701552679 CXO 1 25867U 99040B 08191.37500000 +.00000099 +00000-0 +10000-3 0 02203 2 25867 063.8703 079.8275 6875446 278.6545 358.8406 00.37804905003713 ____________________________________________________________________ These 2-Line ...Continue Reading

[list_settings.list_name] Current TLEs

July 13th 2008 PDT

HST 1 20580U 90037B 08193.95559624 +.00000231 +00000-0 +49464-5 0 01787 2 20580 028.4680 161.6750 0003581 282.5497 077.4696 15.00391554798708 ISS (ZARYA) 1 25544U 98067A 08194.84939815 .00005097 00000-0 37674-4 0 8451 2 25544 051.6416 244.4065 0009521 006.5366 347.2343 15.75032257552569 CXO 1 25867U 99040B 08191.37500000 +.00000099 +00000-0 +10000-3 0 02203 2 25867 063.8703 079.8275 6875446 278.6545 358.8406 00.37804905003713 ____________________________________________________________________ These 2-Line ...Continue Reading

[list_settings.list_name] Current TLEs

July 12th 2008 PDT

HST 1 20580U 90037B 08193.35692974 .00000230 00000-0 48774-5 0 1756 2 20580 028.4680 165.5788 0003565 276.5426 083.4757 15.00391462798612 ISS (ZARYA) 1 25544U 98067A 08193.60542166 .00006092 00000-0 44208-4 0 8360 2 25544 051.6412 250.8048 0009145 001.8868 133.6745 15.75021436552373 CXO 1 25867U 99040B 08191.37500000 +.00000099 +00000-0 +10000-3 0 02203 2 25867 063.8703 079.8275 6875446 278.6545 358.8406 00.37804905003713 ____________________________________________________________________ These 2-Line ...Continue Reading

[list_settings.list_name] Current TLEs

July 11th 2008 PDT

HST 1 20580U 90037B 08191.36137517 +.00000236 +00000-0 +53950-5 0 01851 2 20580 028.4681 178.5942 0003626 255.4161 104.6027 15.00391268798316 ISS (ZARYA) 1 25544U 98067A 08191.93326389 +.00007500 +00000-0 +53463-4 0 08257 2 25544 051.6412 259.4045 0009157 354.0894 013.8871 15.75003968552111 CXO 1 25867U 99040B 08191.37500000 +.00000099 +00000-0 +10000-3 0 02203 2 25867 063.8703 079.8275 6875446 278.6545 358.8406 00.37804905003713 ____________________________________________________________________ These 2-Line ...Continue Reading

[list_settings.list_name] Current TLEs

July 10th 2008 PDT

HST 1 20580U 90037B 08192.22611560 .00000225 00000-0 45378-5 0 1743 2 20580 028.4680 172.9542 0003582 264.7705 095.2475 15.00391272798448 ISS (ZARYA) 1 25544U 98067A 08192.20458168 .00007415 00000-0 52900-4 0 8260 2 25544 051.6412 258.0086 0009175 355.2928 112.0984 15.75007951552159 CXO 1 25867U 99040B 08191.37500000 +.00000099 +00000-0 +10000-3 0 02203 2 25867 063.8703 079.8275 6875446 278.6545 358.8406 00.37804905003713 ____________________________________________________________________ These 2-Line ...Continue Reading

[list_settings.list_name] Current TLEs

July 9th 2008 PDT

HST 1 20580U 90037B 08190.43011665 .00000230 00000-0 49041-5 0 1730 2 20580 028.4681 184.6672 0003640 245.7261 114.2948 15.00391077798174 ISS (ZARYA) 1 25544U 98067A 08190.49404896 .00006881 00000-0 49461-4 0 8161 2 25544 051.6405 266.8046 0009099 348.8760 133.2829 15.74978370551884 CXO 1 25867U 99040B 08188.75000000 +.00000131 +00000-0 +10000-3 0 02191 2 25867 063.8586 079.8991 6871430 278.6918 001.4144 00.37805788003709 ____________________________________________________________________ These 2-Line ...Continue Reading

[list_settings.list_name] Current TLEs

July 8th 2008 PDT

HST 1 20580U 90037B 08188.43456338 +.00000263 +00000-0 +74716-5 0 01886 2 20580 028.4687 197.6864 0003738 224.6048 135.4240 15.00391151797873 ISS (ZARYA) 1 25544U 98067A 08189.79148384 .00006207 00000-0 45070-4 0 8118 2 25544 051.6409 270.4184 0008974 345.8568 110.1273 15.74964658551775 CXO 1 25867U 99040B 08188.75000000 +.00000131 +00000-0 +10000-3 0 02191 2 25867 063.8586 079.8991 6871430 278.6918 001.4144 00.37805788003709 ____________________________________________________________________ These 2-Line ...Continue Reading

[list_settings.list_name] Current TLEs

July 7th 2008 PDT

HST 1 20580U 90037B 08189.23278502 .00000243 00000-0 58945-5 0 1727 2 20580 028.4684 192.4813 0003711 233.2692 126.7554 15.00391109797996 ISS (ZARYA) 1 25544U 98067A 08188.72005378 .00004834 00000-0 36081-4 0 8054 2 25544 051.6414 275.9279 0009028 342.1775 154.8507 15.74944895551605 CXO 1 25867U 99040B 08188.75000000 +.00000131 +00000-0 +10000-3 0 02191 2 25867 063.8586 079.8991 6871430 278.6918 001.4144 00.37805788003709 ____________________________________________________________________ These 2-Line ...Continue Reading
  • This mailing list is a public mailing list - anyone may join or leave, at any time.
  • This mailing list is announce-only.

International Space Station (ISS) / Hubble Space Telescope (HST) / Chandra X-Ray Observatory Orbital Data via EMAIL

Privacy Policy:

Private list